Flag for U.S.A. Weather past 2 weeks in Fall River, Massachusetts, U.S.A.

Now
48 °F

Low clouds.


Feels Like: 45 °F
Forecast: 44 / 62 °F
Wind: 6 mph from Northeast

Location: New Bedford Regional Airport

Current Time: Jun 3, 2015 at 7:52:42 AM

Latest Report: Jun 3, 2015 at 6:53 AM


Visibility: 10 mi

Pressure: 30.21 "Hg

Humidity: 89%

Dew point: 45 °F

Location of Fall RiverLocation

Historic Weather in Fall River — Graph

°F

Fall River temperature yesterday

Maximum temperature yesterday: 50 °F (at 12:53 PM)
Minimum temperature yesterday: 47 °F (at 11:53 PM)
Average temperature yesterday: 49 °F

Past Weeks' High & Low Weather Summary

 TemperatureHumidityPressure
High79 °F (May 29, 11:53 AM)100% (May 19, 5:53 PM)30.33 "Hg (May 19, 5:53 PM)
Low42 °F (May 21, 1:53 AM)24% (May 22, 5:53 PM)29.71 "Hg (May 20, 12:53 AM)
Average60 °F75%30.11 "Hg
* Reported May 19 5:53 AM — Jun 3 5:53 AM, Fall River, Weather by CustomWeather, © 2015

Note: Actual official high and low records may vary slightly from our data, if they occured in-between our weather recording intervals... More about our weather records

Advertising

Fall River weather history for previous 24 hours

 ConditionsComfort  
Time TempWeatherWind HumidityBarometerVisibility
5:53 AM
Wed, Jun 3
47 °FLow clouds.6 mph93%30.19 "Hg10 mi
4:53 AM47 °FOvercast.No wind93%30.19 "Hg10 mi
3:53 AM48 °FOvercast.5 mph86%30.18 "Hg10 mi
2:53 AM47 °FLow clouds.6 mph93%30.17 "Hg10 mi
1:53 AM47 °FLow clouds.3 mph93%30.16 "Hg10 mi
12:53 AM47 °FPassing clouds.3 mph93%30.17 "Hg10 mi
11:53 PM
Tue, Jun 2
47 °FClear.No wind93%30.18 "Hg10 mi
10:53 PM48 °FMostly cloudy.No wind86%30.17 "Hg10 mi
9:53 PM48 °FOvercast.9 mph89%30.17 "Hg10 mi
8:53 PM48 °FOvercast.7 mph89%30.15 "Hg10 mi
7:53 PM48 °FOvercast.10 mph89%30.15 "Hg10 mi
6:53 PM49 °FMostly cloudy.10 mph86%30.14 "Hg10 mi
5:53 PM49 °FLow clouds.9 mph90%30.13 "Hg10 mi
4:53 PM49 °FMostly cloudy.12 mph90%30.12 "Hg10 mi
3:53 PM49 °FLight rain. Mostly cloudy.10 mph93%30.12 "Hg10 mi
3:00 PM50 °FLight rain. Mostly cloudy.8 mph93%30.13 "Hg10 mi
1:53 PM50 °FLight rain. Mostly cloudy.9 mph93%30.13 "Hg10 mi
1:02 PM50 °FLight rain. Mostly cloudy.9 mph89%30.13 "Hg10 mi
12:53 PM50 °FLight rain. Mostly cloudy.10 mph89%30.13 "Hg10 mi
11:53 AM49 °FLight rain. Fog.6 mph93%30.13 "Hg5 mi
10:53 AM49 °FLight rain. Fog.5 mph93%30.13 "Hg6 mi
9:53 AM49 °FLow clouds.9 mph93%30.12 "Hg10 mi
8:53 AM49 °FLow clouds.9 mph93%30.11 "Hg10 mi
7:53 AM49 °FLight rain. Low clouds.9 mph93%30.11 "Hg9 mi
Weather by CustomWeather, © 2015

See weather overviewHow to use our weather pages